7 * 24
多渠道服务支持
STARLINK-32883 是 SpaceX 星链(Starlink)卫星互联网项目中的一颗低轨通信卫星。该卫星属于星链计划的第三批部署卫星之一,旨在为全球用户提供高速、低延迟的互联网服务。它运行在约 550 公里的近地轨道上,采用先进的推进系统和激光通信技术,以提高网络效率和卫星间通信能力。作为星链星座的一部分,STARLINK-32883 有助于扩大覆盖范围,特别是在偏远和网络基础设施薄弱的地区。
美国
(US)
| 数据来源 | 国际轨道数据 |
| 星历时间: | 2025-11-06T22:20:54+0800 1天前 查看轨道信息 |
| 半长轴: | 6853.265km |
| 偏心率: | 0.000188 |
| 轨道倾角: | 53.163° |
| 近地点辐角 | 98.304° |
| 升交点赤经 | 161.271° |
| 平近点角 | 261.817° |
| 近地点: | 473.841km |
| 远地点: | 476.419km |
| 周期: | 94.104分钟 |
| 每日圈数: | 15.302294 |